Погода в Сие

Россия / Архангельская область     64°01′25″N   43°10′57″E
В апреле 2022 года жителям России запретили посещать сайт meteo.paraplan.net по решению Генеральной прокуратуры. Аудитория сайта уменьшилась в 10 раз. Владельцы сайта не видят смысла в поддержке погодного сервера в таких условиях. Сайт будет закрыт в октябре.
темп.,
°C
ветер,
м/с
пор.,
м/с
влажн.,
%
обл.,
%
осадки,
мм/ч
давл.,
гПа
погр.,
м
25 сентября, вс
вс2500:00+3всв51373100 0.0 1017617
03:00+2всв51480100 0.0 1016575
06:00+2в51282100 0.0 1016571
09:00+3в4118297 0.1 1016551
12:00+6в4975100 0.0 1015606
15:00+9в4969100 0.0 1015793
18:00+7в41073100 0.0 1015661
21:00+7в41179100 0.1 1015569
26 сентября, пн
пн2600:00+6в41077100 0.0 1015477
03:00+3в3108348 0.0 1015331
06:00+1в3108843 0.0 1015337
09:00+4в48705 0.0 1015467
12:00+7вюв57550 0.0 1015730
15:00+9вюв47534 0.0 1016862
18:00+5в38703 0.0 1017188
21:00+3вюв39795 0.0 1018210
27 сентября, вт
вт2700:00+1в27855 0.0 1019151
03:000в26875 0.0 1020115
06:00−1в278931 0.0 1020137
09:00+4вюв3566100 0.0 1020290
12:00+7вюв3457100 0.0 1021614
15:00+8вюв3459100 0.0 1021707
18:00+4вюв2579100 0.0 102287
21:00+2вюв2684100 0.0 1023113
28 сентября, ср
ср2800:00+1вюв2586100 0.0 102493
03:000вюв258793 0.0 1025101
06:00−1вюв2687100 0.0 1025122
09:00+3юв36655 0.0 1026287
12:00+7юв35474 0.0 1026825
15:00+8юв35450 0.0 1025991
18:00+3вюв27680 0.0 1026119
21:00+1вюв29770 0.0 1026180
29 сентября, чт
чт2900:000вюв28820 0.0 1027141
03:00−1в27840 0.0 1027149
06:00−1в39810 0.0 1028200
09:00+3вюв48600 0.0 1028398
12:00+7юв47430 0.0 1027929
15:00+7вюв47444 0.0 1027999
18:00+2вюв386852 0.0 1028166
21:000вюв3107641 0.0 1028222